{"data":{"norad_id":64759,"epoch":"2026-05-24T18:22:02.142048Z","epoch_age_seconds":91272,"freshness":"FRESH","line1":"1 64759U 25147E   26144.76530257  .00024932  00000+0  76688-3 0  9999","line2":"2 64759  53.1589 249.0743 0001172  76.4519 283.6614 15.33548263 50359","mean_motion":15.33548263,"eccentricity":0.0001172,"inclination_deg":53.1589,"raan_deg":249.0743,"arg_perigee_deg":76.4519,"mean_anomaly_deg":283.6614,"bstar":0.00076688,"rev_number":5035,"period_min":93.899881388995,"perigee_km":464.43391037194,"apogee_km":466.03799699228,"semimajor_km":6843.3729536821,"source":"CELESTRAK","updated_at":"2026-05-25T13:38:20.553206Z"}}